Location: Bay Ridge
(40.6340°N, 74.0146°W)
Time: 05:17:30
(UTC+00:00)

Shenzhou-11 Module - Pass Details

Date: 15 November 2019
Orbit: 307 x 321 km, 42.8° (Epoch: 09 December)

Event Time Altitude Azimuth Distance (km) Brightness Sun altitude
Exits shadow 10:57:03 14° 288° (WNW) 1,014 3.5 -8.9°
Maximum altitude 10:59:16 72° 12° (NNE) 330 1.7 -8.5°
Drops below altitude 10° 11:01:57 10° 98° (E) 1,201 6.2 -8.0°
Sets 11:03:56 0° 101° (E) 2,032 8.1 -7.7°
